Regional Weather Roundup
Issued by NWS Sterling, VA

Home | Current Version | Previous Version | Text Only | Print | Product List | Glossary On
Versions: 1 2 3 4 5 6 7 8 9 10 11 12 13 14 15 16 17 18 19 20 21 22 23 24 25 26 27
000
ASUS41 KLWX 311011
RWRLWX

REGIONAL WEATHER ROUNDUP
NATIONAL WEATHER SERVICE BALTIMORE MD/WASHINGTON DC
600 AM EDT SUN JUL 31 2016

Note: "FAIR" indicates few or no clouds below 12,000 feet
with no significant weather and/or obstructions to visibility.
 TC=TEMPERATURE CELSIUS

 * =Non NWS site. Station does not report precipitation (e.g. rain,
    snow, etc.), thunder, or fog.

DCZ001-MDZ009-015-VAZ040>042-051-053>054-311100-
WASHINGTON METRO

CITY           SKY/WX    TMP DP  RH WIND       PRES   REMARKS
WASHINGTON NAT FAIR      75  72  90 E7        29.97R
DULLES         CLOUDY    73  70  90 N5        29.98R
ANDREWS AFB    FOG       72  72 100 N3        29.97R VSB 1/4
FT BELVOIR     FAIR      71  70  96 SW2       29.97R
LEESBURG*      CLOUDY    72  72 100 NW7       30.00R
MANASSAS*      CLOUDY    73  72  94 CALM      29.98R
GAITHERSBURG*  PTCLDY    70  66  88 CALM      30.02R

$$

MDZ006>007-011-014-311100-
BALTIMORE METRO

CITY           SKY/WX    TMP DP  RH WIND       PRES   REMARKS
BWI AIRPORT    PTCLDY    72  70  93 VRB5      29.96R
MD SCIENCE CTR   N/A     75  71  87 MISG      29.96R
MARTIN STATE   PTCLDY    73  73 100 NW3       29.97R
ANNAPOLIS      CLEAR     76  74  93 CALM      29.95R
FORT MEADE*    CLEAR     70  68  94 CALM      29.99R

$$

MDZ012-015-019>023-311100-
MARYLAND EASTERN SHORE

CITY           SKY/WX    TMP DP  RH WIND       PRES   REMARKS
OCEAN CITY     CLOUDY    79  76  90 CALM      29.96R
SALISBURY      MOCLDY    73  73 100 CALM      29.95
BAY BRIDGE AP* CLEAR     75  73  94 NE3       29.96R FOG
CAMBRIDGE*     PTCLDY    72  72 100 CALM      29.95R
EASTON*        PTCLDY    75  75 100 CALM      29.99S FOG

$$

MDZ017>025-311100-
SOUTHERN MARYLAND

CITY           SKY/WX    TMP DP  RH WIND       PRES   REMARKS
PATUXENT RIVER NOT AVBL
ST INIGOES     MOCLDY    75  73  93 CALM      29.95R
LEONARDTOWN*   CLEAR     72  70  94 CALM      29.98R

$$

MDZ003>005-311100-
NORTH CENTRAL MARYLAND

CITY           SKY/WX    TMP DP  RH WIND       PRES   REMARKS
FREDERICK*     CLOUDY    68  68 100 CALM      30.01R FOG
HAGERSTOWN APT CLOUDY    72  69  90 CALM      29.99R

$$

MDZ501>502-311100-
WESTERN MARYLAND

CITY           SKY/WX    TMP DP  RH WIND       PRES   REMARKS
OAKLAND*       CLOUDY    64  64 100 W3        30.08S FOG
CUMBERLAND*    CLOUDY    70  70 100 SE3       30.04R

$$

VAZ025>031-311100-
SHENANDOAH VALLEY

CITY           SKY/WX    TMP DP  RH WIND       PRES   REMARKS
WINCHESTER*    FAIR      70  70 100 CALM      30.00R FOG
FRONT ROYAL*   CLOUDY    70  70 100 CALM      29.99R
LURAY*         CLOUDY   N/A N/A N/A CALM      29.99R
NEW MARKET*    FAIR     N/A N/A N/A CALM      29.98R
STAUNTON*      FOG       69  69 100 S5        30.03R VSB 1
WAYNESBORO*    FAIR      67  65  96 CALM      30.02R

$$

WVZ021-048>050-054>055-311100-
EASTERN WEST VIRGINIA PANHANDLE

CITY           SKY/WX    TMP DP  RH WIND       PRES   REMARKS
MARTINSBURG    FOG       70  70 100 NW3       29.99R VSB 3/4
PETERSBURG*    FAIR      68  67  97 CALM      30.00R FOG

$$

VAZ036>039-050-311100-
CENTRAL FOOTHILLS

CITY           SKY/WX    TMP DP  RH WIND       PRES   REMARKS
CHARLOTTESVILL FOG       70  68  93 CALM      29.97R VSB 1/4
CULPEPER*      FOG       71  71 100 CALM      29.99R VSB 3/4
ORANGE*        FOG       70  70 100 CALM      29.99R VSB 1/4
GORDONSVILLE*  FOG       69  69 100 CALM      29.97R VSB 1/4
WARRENTON*     FOG       72  67  87 NE3       29.97R VSB 1/2

$$

VAZ055>057-311100-
NORTH AND CENTRAL PIEDMONT

CITY           SKY/WX    TMP DP  RH WIND       PRES   REMARKS
FREDERICKSBRG* CLOUDY    72  72 100 CALM      29.96R
STAFFORD*      FOG       70  69  97 CALM      30.01R VSB 1/4

$$

NCZ024-NYZ072-PAZ021-071-VAZ022-071-311100-
OTHER REGIONAL OBSERVATIONS

CITY           SKY/WX    TMP DP  RH WIND       PRES   REMARKS
NEW YORK CITY  CLOUDY    74  71  91 VRB3      30.03R FOG
PHILADELPHIA   CLOUDY    76  73  91 SE6       29.97R
PITTSBURGH     PTCLDY    64  63  96 CALM      29.99R FOG
ROANOKE        FAIR      71  68  90 CALM      30.03R
RICHMOND       CLOUDY    72  71  97 SE7       29.97R
RALEIGH        PTCLDY    75  72  90 SW8       29.99R

$$

ANZ530>537-311100-
MARINE OBSERVATIONS

STATION/POSITION TIME  TEMP    WIND        PRES
                       AIR SEA DIR/SP/G
                 (UTC) (F)     (DEG/KT/KT) (MB)
THOMAS PT LIGHT  1000   76 83  340/  6/  7 1015.8R
BALT KEY BRIDGE  0948   75      20/  4/  5 1014.3R
COVE POINT       0948   76     290/  5/  6 1015.0R
LEWISETTA        0948   75 85  270/  1/  2 1014.0R
SOLOMONS ISLAND  0942   76 85  300/  3/  4   N/A
PINEY POINT      0942          300/  2/  4   N/A

$$





USA.gov is the U.S. government's official web portal to all federal, state and local government web resources and services.